星链-35826(STARLINK-35826)

导读

STARLINK-35823是美国SpaceX公司星链星座的成员卫星,于2025年11月6日发射入轨。作为低轨宽带通信卫星,它服务于星链全球覆盖计划,旨在为全球偏远地区提供高速低延迟互联网服务。该星采用平板设计、霍尔推进器,具备自主避撞能力,服役期满后会受控离轨再入大气层焚毁,降低空间碎片风险,是SpaceX构建巨型卫星星座的重要组成。

Basic Information
目录编号:
66360
目录名称:
STARLINK-35823
国际标识:
2025-254N
轨道中心:
EARTH
卫星名称:
星链-35826
卫星全名:
星链-35826(STARLINK-35826)
卫星状态:
在轨 (已飞行219 天)
发射日期:
2025-11-06 UTC
国别 :
美国 (US)
星等 :
--
Orbit Information
数据来源 国际轨道数据 AOE轨道数据
星历时间 2026-06-12T14:57:04+0800
1天前
查看轨道信息
2026-06-10T05:00:00+0800
3天前
查看轨道信息
半长轴 6853.335km 6853.323km
偏心率 0.000124 0.0001392
轨道倾角 53.158° 53.157°
近地点辐角 101.779° 79.776°
升交点赤经 152.736° 163.954°
平近点角 258.335° 291.472°
近地点 474.348km 474.232km
远地点 476.048km 476.14km
周期 94.105分钟 94.105分钟
每日圈数 15.30206 15.302098
Detailed Information
固有亮度:
5
最大亮度:
2.5
卫星平台:
Starlink V1.0
覆盖范围:
全球
运营商:
太空探索技术公司
运营商所在国:
美国
制造商(研发单位):
太空探索技术公司
制造商所在国:
美国
使用方式:
暂无
Satellite Introduction
Starlink 计划是 SpaceX 推出的全球卫星互联网项目,通过发射低轨道卫星,为全球尤其是偏远地区提供高速、低延迟的互联网服务。自 2019 年起,Starlink 已部署数千颗卫星,旨在缩小全球数字鸿沟,推动互联网普及。该项目还为军事、航空等行业提供通信支持,带来广泛经济效益。
2D Orbit Map
3D Orbit Map
Orbit Altitude Analysis Chart
Orbit Inclination Analysis Chart
Orbit Comprehensive Analysis Chart
View Comprehensive Chart